• In Österreich
  • Länderverzeichnis
  • Für 7 Tage
  • Wassertemperatur
  • Satellitenkarten
  • Wetterkarte
  • News
  • Widgets
  • user-avatar
    Anmelden

    Stündliche Wetter Chinsali

    Heute, 18 Juni, Montag

    Zeit Temperatur Niederschläge Wind Luftdruck Luftfeuchtigkeit
    00:00 +14°C° 0 mm 2 m/S 648 mmHg 79%
    01:00 +13°C° 0 mm 2 m/S 648 mmHg 81%
    02:00 +13°C° 0 mm 2 m/S 647 mmHg 82%
    03:00 +12°C° 0 mm 2 m/S 647 mmHg 85%
    04:00 +12°C° 0 mm 2 m/S 647 mmHg 88%
    05:00 +10°C° 0 mm 2 m/S 647 mmHg 91%
    06:00 +13°C° 0 mm 2 m/S 648 mmHg 84%
    07:00 +15°C° 0 mm 2 m/S 649 mmHg 77%
    08:00 +17°C° 0 mm 3 m/S 650 mmHg 67%
    09:00 +19°C° 0 mm 3 m/S 650 mmHg 59%
    10:00 +21°C° 0 mm 3 m/S 650 mmHg 50%
    11:00 +24°C° 0 mm 3 m/S 650 mmHg 42%
    12:00 +25°C° 0 mm 3 m/S 650 mmHg 40%
    13:00 +25°C° 0 mm 3 m/S 649 mmHg 38%
    14:00 +25°C° 0 mm 4 m/S 649 mmHg 40%
    15:00 +24°C° 0 mm 3 m/S 648 mmHg 44%
    16:00 +23°C° 0 mm 2 m/S 648 mmHg 49%
    17:00 +23°C° 0 mm 2 m/S 648 mmHg 53%
    18:00 +20°C° 0 mm 2 m/S 648 mmHg 58%
    19:00 +18°C° 0 mm 2 m/S 647 mmHg 64%
    20:00 +16°C° 0 mm 2 m/S 647 mmHg 69%
    21:00 +15°C° 0 mm 2 m/S 647 mmHg 72%
    22:00 +14°C° 0 mm 2 m/S 648 mmHg 74%
    23:00 +14°C° 0 mm 2 m/S 648 mmHg 77%

    Morgen, 19 Juni, Dienstag

    Zeit Temperatur Niederschläge Wind Luftdruck Luftfeuchtigkeit
    00:00 +13°C° 0 mm 2 m/S 648 mmHg 80%
    01:00 +13°C° 0 mm 2 m/S 647 mmHg 83%
    02:00 +12°C° 0 mm 2 m/S 647 mmHg 87%
    03:00 +12°C° 0 mm 2 m/S 647 mmHg 89%
    04:00 +12°C° 0 mm 2 m/S 647 mmHg 91%
    05:00 +10°C° 0 mm 2 m/S 647 mmHg 94%
    06:00 +13°C° 0 mm 2 m/S 648 mmHg 86%
    07:00 +15°C° 0 mm 2 m/S 649 mmHg 79%
    08:00 +16°C° 0 mm 2 m/S 649 mmHg 71%
    09:00 +19°C° 0 mm 2 m/S 650 mmHg 61%
    10:00 +21°C° 0 mm 3 m/S 650 mmHg 50%
    11:00 +25°C° 0 mm 3 m/S 651 mmHg 40%
    12:00 +25°C° 0 mm 2 m/S 650 mmHg 37%
    13:00 +26°C° 0 mm 2 m/S 650 mmHg 34%
    14:00 +27°C° 0 mm 2 m/S 649 mmHg 31%
    15:00 +26°C° 0 mm 2 m/S 649 mmHg 36%
    16:00 +24°C° 0 mm 2 m/S 648 mmHg 40%
    17:00 +23°C° 0 mm 2 m/S 648 mmHg 45%
    18:00 +20°C° 0 mm 2 m/S 648 mmHg 49%
    19:00 +18°C° 0 mm 2 m/S 648 mmHg 53%
    20:00 +17°C° 0 mm 2 m/S 648 mmHg 57%
    21:00 +16°C° 0 mm 2 m/S 648 mmHg 61%
    22:00 +15°C° 0 mm 2 m/S 648 mmHg 65%
    23:00 +15°C° 0 mm 2 m/S 648 mmHg 69%

    übermorgen, 20 Juni, Mittwoch

    Zeit Temperatur Niederschläge Wind Luftdruck Luftfeuchtigkeit
    00:00 +14°C° 0 mm 2 m/S 648 mmHg 74%
    01:00 +14°C° 0 mm 2 m/S 648 mmHg 78%
    02:00 +13°C° 0 mm 2 m/S 647 mmHg 83%
    03:00 +13°C° 0 mm 2 m/S 647 mmHg 86%
    04:00 +12°C° 0 mm 1 m/S 647 mmHg 89%
    05:00 +12°C° 0 mm 1 m/S 647 mmHg 91%
    06:00 +14°C° 0 mm 2 m/S 648 mmHg 84%
    07:00 +15°C° 0 mm 2 m/S 649 mmHg 76%
    08:00 +17°C° 0 mm 2 m/S 650 mmHg 68%
    09:00 +20°C° 0 mm 3 m/S 650 mmHg 59%
    10:00 +22°C° 0 mm 3 m/S 651 mmHg 50%
    11:00 +25°C° 0 mm 3 m/S 651 mmHg 40%
    12:00 +26°C° 0 mm 3 m/S 651 mmHg 38%
    13:00 +26°C° 0 mm 3 m/S 650 mmHg 36%
    14:00 +27°C° 0 mm 3 m/S 650 mmHg 33%
    15:00 +26°C° 0 mm 3 m/S 649 mmHg 38%
    16:00 +25°C° 0 mm 3 m/S 649 mmHg 42%
    17:00 +23°C° 0 mm 2 m/S 649 mmHg 46%
    18:00 +21°C° 0 mm 3 m/S 649 mmHg 52%
    19:00 +19°C° 0 mm 3 m/S 649 mmHg 57%
    20:00 +18°C° 0 mm 3 m/S 649 mmHg 63%
    21:00 +17°C° 0 mm 3 m/S 649 mmHg 64%
    22:00 +17°C° 0 mm 3 m/S 650 mmHg 64%
    23:00 +16°C° 0 mm 3 m/S 650 mmHg 65%

    21 Juni, Donnerstag

    Zeit Temperatur Niederschläge Wind Luftdruck Luftfeuchtigkeit
    00:00 +16°C° 0 mm 3 m/S 649 mmHg 68%
    01:00 +14°C° 0 mm 3 m/S 649 mmHg 70%
    02:00 +14°C° 0 mm 2 m/S 648 mmHg 73%
    03:00 +14°C° 0 mm 2 m/S 648 mmHg 75%
    04:00 +14°C° 0 mm 2 m/S 648 mmHg 76%
    05:00 +13°C° 0 mm 2 m/S 648 mmHg 78%
    06:00 +14°C° 0 mm 3 m/S 649 mmHg 73%
    07:00 +16°C° 0 mm 3 m/S 650 mmHg 68%
    08:00 +18°C° 0 mm 3 m/S 651 mmHg 63%
    09:00 +20°C° 0 mm 3 m/S 651 mmHg 55%
    10:00 +22°C° 0 mm 4 m/S 652 mmHg 47%
    11:00 +25°C° 0 mm 4 m/S 652 mmHg 40%
    12:00 +26°C° 0 mm 3 m/S 652 mmHg 37%
    13:00 +27°C° 0 mm 3 m/S 651 mmHg 35%
    14:00 +27°C° 0 mm 3 m/S 650 mmHg 33%
    15:00 +26°C° 0 mm 2 m/S 650 mmHg 37%
    16:00 +25°C° 0 mm 2 m/S 649 mmHg 41%
    17:00 +24°C° 0 mm 2 m/S 649 mmHg 45%
    18:00 +21°C° 0 mm 2 m/S 649 mmHg 49%
    19:00 +20°C° 0 mm 2 m/S 649 mmHg 53%
    20:00 +18°C° 0 mm 2 m/S 649 mmHg 56%
    21:00 +17°C° 0 mm 2 m/S 649 mmHg 60%
    22:00 +17°C° 0 mm 2 m/S 649 mmHg 63%
    23:00 +16°C° 0 mm 2 m/S 649 mmHg 66%

    22 Juni, Freitag

    Zeit Temperatur Niederschläge Wind Luftdruck Luftfeuchtigkeit
    00:00 +16°C° 0 mm 2 m/S 649 mmHg 72%
    01:00 +15°C° 0 mm 2 m/S 648 mmHg 78%
    02:00 +14°C° 0 mm 2 m/S 648 mmHg 84%
    03:00 +14°C° 0 mm 2 m/S 648 mmHg 86%
    04:00 +14°C° 0 mm 2 m/S 648 mmHg 89%
    05:00 +14°C° 0 mm 2 m/S 648 mmHg 91%
    06:00 +14°C° 0 mm 3 m/S 649 mmHg 84%
    07:00 +17°C° 0 mm 3 m/S 650 mmHg 78%
    08:00 +18°C° 0 mm 4 m/S 651 mmHg 71%
    09:00 +20°C° 0 mm 4 m/S 651 mmHg 64%
    10:00 +22°C° 0 mm 4 m/S 652 mmHg 56%
    11:00 +25°C° 0 mm 4 m/S 652 mmHg 48%
    12:00 +26°C° 0 mm 3 m/S 651 mmHg 45%
    13:00 +27°C° 0 mm 3 m/S 650 mmHg 42%
    14:00 +27°C° 0 mm 3 m/S 650 mmHg 40%
    15:00 +26°C° 0 mm 3 m/S 649 mmHg 43%
    16:00 +25°C° 0 mm 2 m/S 649 mmHg 47%
    17:00 +24°C° 0 mm 2 m/S 649 mmHg 51%
    18:00 +23°C° 0,1 mm 2 m/S 649 mmHg 58%
    19:00 +20°C° 0,1 mm 2 m/S 649 mmHg 64%
    20:00 +18°C° 0,1 mm 2 m/S 649 mmHg 70%
    21:00 +17°C° 0 mm 2 m/S 649 mmHg 72%
    22:00 +17°C° 0 mm 2 m/S 649 mmHg 74%
    23:00 +16°C° 0 mm 2 m/S 649 mmHg 76%

    23 Juni, Samstag

    Zeit Temperatur Niederschläge Wind Luftdruck Luftfeuchtigkeit
    00:00 +15°C° 0 mm 2 m/S 649 mmHg 77%
    01:00 +15°C° 0 mm 2 m/S 648 mmHg 78%
    02:00 +14°C° 0 mm 2 m/S 648 mmHg 79%
    03:00 +14°C° 0 mm 2 m/S 648 mmHg 81%
    04:00 +14°C° 0 mm 2 m/S 648 mmHg 83%
    05:00 +14°C° 0 mm 2 m/S 648 mmHg 86%
    06:00 +15°C° 0 mm 2 m/S 649 mmHg 80%
    07:00 +17°C° 0 mm 3 m/S 650 mmHg 74%
    08:00 +18°C° 0 mm 3 m/S 651 mmHg 68%
    09:00 +20°C° 0 mm 4 m/S 651 mmHg 61%
    10:00 +22°C° 0 mm 4 m/S 651 mmHg 54%
    11:00 +25°C° 0 mm 4 m/S 651 mmHg 47%
    12:00 +26°C° 0 mm 3 m/S 650 mmHg 45%
    13:00 +26°C° 0 mm 3 m/S 650 mmHg 42%
    14:00 +27°C° 0 mm 3 m/S 649 mmHg 40%
    15:00 +26°C° 0 mm 3 m/S 649 mmHg 43%
    16:00 +25°C° 0 mm 2 m/S 648 mmHg 47%
    17:00 +24°C° 0 mm 2 m/S 648 mmHg 50%
    18:00 +21°C° 0 mm 2 m/S 648 mmHg 54%
    19:00 +19°C° 0 mm 2 m/S 648 mmHg 58%
    20:00 +18°C° 0 mm 2 m/S 649 mmHg 62%
    21:00 +17°C° 0 mm 2 m/S 648 mmHg 64%
    22:00 +16°C° 0 mm 2 m/S 648 mmHg 66%
    23:00 +16°C° 0 mm 2 m/S 648 mmHg 67%
    Mehr zeigen